Weather in Gerlos

Austria     47°13′28″N   12°01′55″E
temp.,
°C
wind,
m/s
gust,
m/s
humid.,
%
clouds,
%
prec.,
mm/h
press.,
hPa
HPBL,
m
17 may, tue
tue1723:00+8s1294100 1.1 102372
02:00+8wsw1193100 1.8 102322
05:00+7wnw1196100 1.2 102310
08:00+9nne018716 1.5 1023173
11:00+12nnw22707 0.9 1022923
14:00+14n335690 1.4 10211399
17:00+13n336487 0.6 10201087
20:00+10n228951 1.3 102233
18 may, wed
wed1823:00+7sse119318 0.2 102411
02:00+6s11935 0.2 102415
05:00+6s22915 0.0 102420
08:00+10ese018046 0.0 1025225
11:00+14n226014 0.1 10241203
14:00+17n334870 0.7 10231805
17:00+16n324766 0.3 10221632
20:00+12ne11818 0.3 102312
19 may, thu
thu1923:00+9s33815 0.0 102532
02:00+8s45905 0.0 102586
05:00+8s45875 0.0 102582
08:00+13s346686 0.0 1025256
11:00+19nw114261 0.0 10231392
14:00+20n3339100 0.0 10222513
17:00+15sse2271100 0.6 102458
20:00+11ne2397100 3.1 102683
20 may, fri
fri2023:00+11sw2289100 0.6 102720
02:00+9s2293100 0.9 102730
05:00+9s339169 0.0 102742
08:00+14s12755 0.1 1026175
11:00+19nnw224676 0.0 10241447
14:00+21nnw343613 0.0 10222415
17:00+21nnw463873 0.0 10212332
20:00+16sse326385 0.1 102128
21 may, sat
sat2123:00+12nw1176100 0.3 102315
02:00+11sw3494100 5.4 1025121
05:00+11s338199 1.8 102239
08:00+12nw1179100 1.9 102223
11:00+13n117192 0.1 1021275
14:00+18nnw325699 0.8 10191241
17:00+15n338354 2.1 1019651
20:00+12nne119455 3.8 1020171